Torna al catalogo

FENGYUN 1C DEB

AttivoSSO
NORAD 36222·DEBRIS·🇨🇳 China

Lanciato May 10, 1999 da Taiyuan Satellite Launch Center

Loading…

Prossimi Passaggi (prossime 24 ore)

TLE

In scadenzaSource: Space-Track

Epoca: Sep 10, 2026, 23:44 UTC

1 36222U 99025DUX 26253.98952345  .00002273  00000-0  65434-3 0  9992
2 36222  98.4972 323.3109 0041671 335.3925  24.5277 14.45238521690609

Traccia FENGYUN 1C DEB in tempo reale con AllMySat

Download on the App Store